"Pseudo-MPEC" for P12erud

Created 2025 Oct 5 20:35:11 UT using Find_Orb

Click here for an explanation of pseudo-MPECs

 
 Astrometry: 
     P12erud* C2025 09 04.59039502 00 15.058-17 36 37.23   ~94Go 21.92wXNEOCPF51
     P12erud  C2025 09 04.59689802 00 15.534-17 36 54.21   ~94Go 22.29wXNEOCPF51
     P12erud  C2025 09 04.60339202 00 16.037-17 37 10.57   ~94Go 21.97wXNEOCPF51
     P12erud  C2025 09 05.59817102 01 34.332-18 19 27.80   ~95Jo 21.62GVNEOCPF52
     P12erud  C2025 09 05.59897702 01 34.382-18 19 29.99   ~95Jo 22.05GVNEOCPF52

Station data:
(F51) Pan-STARRS 1, Haleakala  (N20.707234 W156.255910)  US/Hawaii.
   Observers J. Herman, T. Lowe, P. Minguez, A. Schultz, I. Smith. Measurers
   K. Chambers, T. de Boer, J. Fairlamb, H. Gao, M. Huber, C.-C. Lin, E.
   Magnier, Y. Ramanjooloo, R. Wainscoat, R. Weryk. 1.8-m Ritchey-Chrétien +
   CCD.
(F52) Pan-STARRS 2, Haleakala  (N20.707382 W156.255910)  US/Hawaii.
   Observers J. Herman, T. Lowe, P. Minguez, A. Schultz, I. Smith. Measurers
   K. Chambers, T. de Boer, J. Fairlamb, H. Gao, M. Huber, C.-C. Lin, E.
   Magnier, Y. Ramanjooloo, R. Wainscoat, R. Weryk. 1.8-m Ritchey-Chrétien +
   CCD.

Orbital elements:  P12erud
   Perihelion 2025 Aug 4.336668 +/- 65.3 TT =  8:04:48.1 (JD 2460891.836668)
Epoch 2025 Sep  5.0 TT = JDT 2460923.5   Earth MOID: 0.5036   Ju: 0.8126
M   4.110843317 +/- 31              (J2000 ecliptic)             AutoNEOCP
n   0.129829777 +/- 0.175           Peri.  183.106521 +/- 57
a   3.862660222 +/- 3.47            Node   155.490213 +/- 7
e   0.60832424 +/- 0.238            Incl.   30.310343 +/- 9
P   7.59154                H 20.66  G  0.15   U 11.6  SR
q 1.512910340 +/- 0.311    Q 6.212410104 +/- 8.9
From 5 observations 2025 Sept. 4-5 (24.2 hr); mean residual 0".11
Residuals in arcseconds: 
250904 F51  .02+  .18+    250904 F51  .11+  .02+    250905 F52  .06-  .07-    
250904 F51  .13-  .20-    250905 F52  .06+  .07+    

Ephemerides (geocentric):
Date (UTC) HH   RA             Dec           delta  r     elong  mag " sig PA
---- --------  ------------   ------------  ------ ------ -----  --- --------
2025 10 05 21  02 18 47.954   -35 03 28.14  .79410 1.6559 134.4 22.4 328'  22
2025 10 05 22  02 18 47.785   -35 04 19.57  .79436 1.6561 134.4 22.4 329'  22
2025 10 05 23  02 18 47.613   -35 05 10.90  .79463 1.6563 134.4 22.4 329'  22
2025 10 06 00  02 18 47.437   -35 06 02.13  .79490 1.6565 134.4 22.4 330'  22
2025 10 06 01  02 18 47.258   -35 06 53.27  .79517 1.6566 134.4 22.4 331'  22
2025 10 06 02  02 18 47.076   -35 07 44.31  .79544 1.6568 134.4 22.4 332'  22
2025 10 06 03  02 18 46.891   -35 08 35.26  .79571 1.6570 134.4 22.4 333'  22
2025 10 06 04  02 18 46.703   -35 09 26.11  .79598 1.6572 134.4 22.4 333'  22
2025 10 06 05  02 18 46.512   -35 10 16.86  .79625 1.6573 134.4 22.4 334'  22
2025 10 06 06  02 18 46.317   -35 11 07.52  .79652 1.6575 134.4 22.4 335'  22
2025 10 06 07  02 18 46.119   -35 11 58.08  .79679 1.6577 134.3 22.4 336'  22
2025 10 06 08  02 18 45.918   -35 12 48.54  .79706 1.6579 134.3 22.4 337'  22
2025 10 06 09  02 18 45.714   -35 13 38.91  .79733 1.6581 134.3 22.4 338'  22
2025 10 06 10  02 18 45.507   -35 14 29.18  .79760 1.6582 134.3 22.4 338'  22
2025 10 06 11  02 18 45.296   -35 15 19.35  .79787 1.6584 134.3 22.4 339'  22
2025 10 06 12  02 18 45.083   -35 16 09.43  .79814 1.6586 134.3 22.4 340'  22
2025 10 06 13  02 18 44.866   -35 16 59.41  .79842 1.6588 134.3 22.4 341'  22
2025 10 06 14  02 18 44.646   -35 17 49.30  .79869 1.6590 134.3 22.4 342'  22
2025 10 06 15  02 18 44.423   -35 18 39.09  .79896 1.6591 134.3 22.4 342'  22
2025 10 06 16  02 18 44.197   -35 19 28.78  .79923 1.6593 134.3 22.4 343'  22
2025 10 06 17  02 18 43.968   -35 20 18.37  .79951 1.6595 134.3 22.4 344'  22
2025 10 06 18  02 18 43.735   -35 21 07.87  .79978 1.6597 134.2 22.4 345'  22
2025 10 06 19  02 18 43.500   -35 21 57.28  .80005 1.6599 134.2 22.4 346'  22
2025 10 06 20  02 18 43.261   -35 22 46.58  .80033 1.6600 134.2 22.4 347'  22
2025 10 06 21  02 18 43.020   -35 23 35.79  .80060 1.6602 134.2 22.4 347'  22
2025 10 06 22  02 18 42.775   -35 24 24.91  .80087 1.6604 134.2 22.4 348'  22
2025 10 06 23  02 18 42.527   -35 25 13.93  .80115 1.6606 134.2 22.4 349'  22
2025 10 07 00  02 18 42.276   -35 26 02.85  .80142 1.6608 134.2 22.4 350'  22
2025 10 07 01  02 18 42.023   -35 26 51.67  .80170 1.6609 134.2 22.5 351'  22
2025 10 07 02  02 18 41.766   -35 27 40.40  .80197 1.6611 134.2 22.5 352'  22
2025 10 07 03  02 18 41.506   -35 28 29.04  .80225 1.6613 134.2 22.5 352'  22
2025 10 07 04  02 18 41.243   -35 29 17.57  .80252 1.6615 134.2 22.5 353'  22
2025 10 07 05  02 18 40.977   -35 30 06.01  .80280 1.6617 134.1 22.5 354'  22
2025 10 07 06  02 18 40.708   -35 30 54.36  .80307 1.6618 134.1 22.5 355'  22
2025 10 07 07  02 18 40.435   -35 31 42.61  .80335 1.6620 134.1 22.5 356'  22
2025 10 07 08  02 18 40.160   -35 32 30.76  .80362 1.6622 134.1 22.5 357'  22
2025 10 07 09  02 18 39.882   -35 33 18.82  .80390 1.6624 134.1 22.5 357'  22
2025 10 07 10  02 18 39.601   -35 34 06.78  .80418 1.6626 134.1 22.5 358'  22
2025 10 07 11  02 18 39.317   -35 34 54.64  .80446 1.6627 134.1 22.5 359'  22
2025 10 07 12  02 18 39.030   -35 35 42.41  .80473 1.6629 134.1 22.5 360'  22
2025 10 07 13  02 18 38.740   -35 36 30.08  .80501 1.6631 134.1 22.5 361'  22
2025 10 07 14  02 18 38.447   -35 37 17.66  .80529 1.6633 134.1 22.5 362'  22
2025 10 07 15  02 18 38.150   -35 38 05.14  .80557 1.6635 134.1 22.5 362'  22
2025 10 07 16  02 18 37.851   -35 38 52.52  .80584 1.6636 134.0 22.5 363'  22
2025 10 07 17  02 18 37.549   -35 39 39.81  .80612 1.6638 134.0 22.5 364'  22
2025 10 07 18  02 18 37.244   -35 40 27.00  .80640 1.6640 134.0 22.5 365'  22
2025 10 07 19  02 18 36.937   -35 41 14.09  .80668 1.6642 134.0 22.5 366'  22
2025 10 07 20  02 18 36.626   -35 42 01.09  .80696 1.6644 134.0 22.5 367'  22